This is the latest recevied weather packets stored in our database for station/object KD2DXJ. If no packets are shown the sender has not sent any weather packets the latest 10 day(s).
| Time | Temp. | Humidity | Pressure | Rain* | Wind** | Luminosity | Snow |
|---|---|---|---|---|---|---|---|
| 1778114470 | 6.67° C | 96% | 1009.4 hPa | 0 mm | - | 0 W/m² | - |
| 1778114166 | 6.67° C | 96% | 1009.3 hPa | 0 mm | - | 0 W/m² | - |
| 1778113861 | 6.67° C | 96% | 1009.4 hPa | 0 mm | - | 0 W/m² | - |
| 1778113558 | 6.67° C | 95% | 1009.4 hPa | 0 mm | - | 0 W/m² | - |
| 1778113254 | 6.67° C | 95% | 1009.3 hPa | 0 mm | - | 1 W/m² | - |
| 1778112951 | 7.22° C | 95% | 1009.4 hPa | 0 mm | - | 1 W/m² | - |
| 1778112648 | 7.22° C | 94% | 1009.1 hPa | 0 mm | - | 2 W/m² | - |
| 1778112344 | 7.22° C | 94% | 1009.2 hPa | 0 mm | - | 3 W/m² | - |
| 1778112040 | 7.22° C | 95% | 1009.4 hPa | 0 mm | - | 4 W/m² | - |
| 1778111738 | 7.22° C | 95% | 1009.1 hPa | 0 mm | - | 4 W/m² | - |
| 1778111433 | 7.22° C | 94% | 1009.2 hPa | 0 mm | - | 3 W/m² | - |
| 1778111131 | 7.22° C | 93% | 1009.2 hPa | 0 mm | - | 4 W/m² | - |
| 1778110828 | 7.22° C | 93% | 1009 hPa | 0 mm | - | 5 W/m² | - |
| 1778110524 | 7.22° C | 94% | 1009.1 hPa | 0 mm | - | 7 W/m² | - |
| 1778110222 | 7.22° C | 94% | 1009.1 hPa | 0 mm | - | 8 W/m² | - |
| 1778109918 | 7.22° C | 94% | 1009.1 hPa | 0 mm | - | 10 W/m² | - |
| 1778109613 | 7.22° C | 94% | 1009.1 hPa | 0 mm | - | 12 W/m² | - |
| 1778109311 | 7.22° C | 92% | 1009 hPa | 0 mm | - | 12 W/m² | - |
| 1778109009 | 7.22° C | 92% | 1009.3 hPa | 0 mm | - | 12 W/m² | - |
| 1778108704 | 7.22° C | 92% | 1009.2 hPa | 0 mm | - | 14 W/m² | - |
| 1778108402 | 7.78° C | 92% | 1009.2 hPa | 0 mm | - | 12 W/m² | - |
| 1778108099 | 7.78° C | 92% | 1009.3 hPa | 0 mm | - | 20 W/m² | - |
| 1778107795 | 7.78° C | 91% | 1009 hPa | 0 mm | - | 21 W/m² | - |
| 1778107492 | 7.78° C | 91% | 1008.9 hPa | 0 mm | - | 25 W/m² | - |
| 1778107189 | 7.78° C | 90% | 1009 hPa | 0 mm | - | 31 W/m² | - |
* Rain latest hour (hover to see other rain measurements)
** Current wind speed in m/s (hover to see current wind gust speed)